Location: Augsburg
(48.3836°N, 10.8929°E)
Time: 01:32:02
(UTC+02:00)

ISS - Visible Passes

Search period start: 22 October 2019 00:00
Search period end: 31 October 2019 23:00
Orbit: 411 x 421 km, 51.6° (Epoch: 21 October)

Date Brightness Start Highest point End Pass type
(mag) Time Alt. Az. Time Alt. Az. Time Alt. Az.
24 Oct -0.9 06:49:41 10° S 06:51:52 16° SE 06:54:02 10° E visible
25 Oct -0.5 06:03:03 10° SE 06:03:30 10° SE 06:03:56 10° SE visible
26 Oct -2.2 06:47:59 10° SSW 06:51:05 35° SE 06:54:10 10° E visible
27 Oct -1.6 05:00:46 15° S 05:02:36 23° SE 05:05:20 10° E visible
28 Oct -0.9 04:14:37 15° SE 04:14:37 15° SE 04:16:11 10° E visible
28 Oct -3.6 05:47:32 13° WSW 05:50:25 72° SSE 05:53:47 10° ENE visible
29 Oct -3.1 05:01:15 43° S 05:01:50 49° SSE 05:05:06 10° ENE visible
30 Oct -1.2 04:14:49 21° E 04:14:49 21° E 04:16:20 10° E visible
30 Oct -3.7 05:47:44 20° W 05:49:52 66° NNW 05:53:13 10° ENE visible
31 Oct -3.9 05:01:13 85° NNE 05:01:13 85° NNE 05:04:33 10° ENE visible
